GW5488 Weather Reports


time (UTC)temp
C
wind
direction
speed
KPH
gust
KPH
rain 1hr
cm
rain 24hr
cm
rain mn
cm
humidity
%
barometer
mb
20260506201304 1 266 0.0 3.2 0.00 0.05 0.05 74 1011.8
20260506200303 1 304 0.0 3.2 0.00 0.05 0.05 75 1011.8
20260506195804 1 304 0.0 1.6 0.00 0.05 0.05 75 1011.8
20260506195306 1 304 0.0 0.0 0.00 0.05 0.05 75 1011.8
20260506194804 1 304 0.0 1.6 0.00 0.05 0.05 75 1011.8
20260506194303 1 304 0.0 1.6 0.00 0.05 0.05 75 1011.8
20260506193304 1 304 0.0 0.0 0.00 0.05 0.05 75 1011.7
20260506192804 1 304 0.0 0.0 0.00 0.05 0.05 75 1011.8
20260506192306 1 304 0.0 0.0 0.00 0.05 0.05 75 1011.7
20260506191304 1 272 0.0 1.6 0.00 0.05 0.05 75 1011.7
20260506190804 1 272 0.0 1.6 0.00 0.05 0.05 75 1011.7
20260506185804 2 264 3.2 11.3 0.00 0.05 0.05 75 1011.7
20260506185306 2 246 4.8 16.1 0.00 0.05 0.05 75 1011.5
20260506184804 2 255 8.0 19.3 0.00 0.05 0.05 75 1011.6
20260506184304 2 256 8.0 11.3 0.00 0.05 0.05 74 1011.4
20260506183804 2 261 6.4 14.5 0.00 0.05 0.05 73 1011.5
20260506183303 2 232 3.2 16.1 0.00 0.05 0.05 74 1011.4
20260506182803 2 241 8.0 16.1 0.00 0.05 0.05 73 1011.4
20260506181804 2 241 9.7 19.3 0.00 0.05 0.05 74 1011.4
20260506181303 2 239 8.0 20.9 0.00 0.05 0.05 75 1011.3
20260506180303 2 245 9.7 20.9 0.00 0.05 0.05 74 1011.4
20260506175804 2 256 11.3 19.3 0.00 0.05 0.05 73 1011.3
20260506175306 3 267 4.8 14.5 0.00 0.05 0.05 69 1011.2
20260506174804 3 262 4.8 9.7 0.00 0.05 0.05 66 1011.2
20260506173804 2 250 1.6 4.8 0.00 0.05 0.05 66 1011.2
20260506173304 2 276 1.6 4.8 0.00 0.05 0.05 65 1011.1
20260506172804 3 244 4.8 9.7 0.00 0.05 0.05 65 1011.1
20260506171804 3 246 1.6 9.7 0.00 0.05 0.05 65 1011.1
20260506171303 3 230 1.6 11.3 0.00 0.05 0.05 64 1011.1
20260506170804 3 258 3.2 8.0 0.00 0.05 0.05 65 1011.0
20260506170303 3 242 4.8 8.0 0.00 0.05 0.05 64 1011.0
20260506165804 3 237 3.2 9.7 0.00 0.05 0.05 64 1011.0
20260506165305 3 260 8.0 14.5 0.00 0.05 0.05 63 1011.0
20260506164804 3 229 6.4 14.5 0.00 0.05 0.05 63 1011.0
20260506164304 3 249 3.2 9.7 0.00 0.05 0.05 66 1011.0
20260506163804 3 216 3.2 14.5 0.00 0.05 0.05 65 1011.1
20260506163303 3 256 3.2 12.9 0.00 0.05 0.05 67 1011.2
20260506162804 3 254 3.2 8.0 0.00 0.05 0.05 70 1011.1
20260506162306 3 255 4.8 12.9 0.00 0.05 0.05 70 1011.2
20260506161804 2 250 3.2 9.7 0.00 0.05 0.05 72 1011.2
20260506161305 2 249 1.6 11.3 0.00 0.05 0.05 74 1011.2
20260506160803 2 233 4.8 9.7 0.00 0.05 0.05 74 1011.2
20260506160303 2 238 3.2 16.1 0.00 0.05 0.05 74 1011.2
20260506155804 2 226 11.3 24.1 0.00 0.05 0.05 73 1011.2
20260506155306 2 233 11.3 20.9 0.00 0.05 0.05 72 1011.3
20260506154803 3 221 8.0 16.1 0.00 0.05 0.05 66 1011.3
20260506154304 3 260 8.0 19.3 0.00 0.05 0.05 65 1011.2
20260506153804 3 252 8.0 16.1 0.00 0.05 0.05 61 1011.0
20260506152803 4 272 3.2 8.0 0.00 0.05 0.05 60 1011.0
20260506152306 4 263 3.2 9.7 0.00 0.05 0.05 60 1010.9
20260506151804 4 254 4.8 14.5 0.00 0.05 0.05 60 1010.9
20260506151304 4 273 3.2 9.7 0.00 0.05 0.05 60 1010.7
20260506150804 3 256 6.4 19.3 0.00 0.05 0.05 58 1010.9
20260506145803 4 253 6.4 16.1 0.00 0.05 0.05 56 1010.9
20260506144804 4 235 4.8 14.5 0.00 0.05 0.05 55 1010.8
20260506144304 4 230 4.8 12.9 0.00 0.05 0.05 57 1010.7
20260506143804 5 229 8.0 16.1 0.00 0.05 0.05 56 1010.8
20260506143304 5 229 11.3 20.9 0.00 0.05 0.05 54 1010.7
20260506142803 6 263 4.8 14.5 0.00 0.05 0.05 54 1010.8
20260506142306 6 248 1.6 4.8 0.00 0.05 0.05 52 1010.8
20260506141804 5 262 4.8 12.9 0.00 0.05 0.05 53 1010.9
20260506140804 5 247 3.2 22.5 0.00 0.05 0.05 57 1010.9
20260506135804 5 267 4.8 19.3 0.00 0.05 0.05 57 1010.9
20260506135306 5 210 3.2 19.3 0.00 0.05 0.05 55 1010.9
20260506134804 5 225 1.6 12.9 0.00 0.05 0.05 60 1010.9
20260506134304 4 217 4.8 19.3 0.00 0.05 0.05 58 1011.0
20260506133803 3 242 8.0 16.1 0.00 0.05 0.05 56 1011.0
20260506133304 4 235 6.4 19.3 0.00 0.05 0.05 60 1011.0
20260506132803 5 246 9.7 16.1 0.00 0.05 0.05 57 1011.0
20260506132307 6 219 11.3 19.3 0.00 0.05 0.05 53 1011.0
20260506131303 5 283 1.6 11.3 0.00 0.05 0.05 55 1010.9
20260506130804 5 248 4.8 19.3 0.00 0.05 0.05 59 1010.9
20260506130303 4 239 3.2 11.3 0.00 0.05 0.05 59 1010.9
20260506125803 4 247 4.8 9.7 0.00 0.05 0.05 58 1010.9
20260506125305 3 260 4.8 12.9 0.00 0.05 0.05 58 1010.9
20260506124804 3 262 4.8 14.5 0.00 0.05 0.05 56 1011.0
20260506124303 4 188 3.2 14.5 0.00 0.05 0.05 59 1010.9
20260506123303 5 316 1.6 9.7 0.00 0.05 0.05 60 1010.9
20260506122804 4 282 4.8 14.5 0.00 0.05 0.05 56 1010.9
20260506122305 3 247 8.0 16.1 0.00 0.05 0.05 55 1011.0
20260506121804 4 265 8.0 16.1 0.00 0.05 0.05 55 1010.9
20260506121306 4 263 8.0 16.1 0.00 0.05 0.05 54 1010.9
20260506120303 4 252 8.0 16.1 0.00 0.05 0.05 53 1010.9
20260506115804 6 276 3.2 8.0 0.00 0.05 0.05 55 1010.9
20260506115306 6 297 1.6 4.8 0.00 0.05 0.05 59 1010.8
20260506114803 6 281 3.2 14.5 0.00 0.05 0.05 60 1010.9
20260506114304 4 224 8.0 20.9 0.00 0.05 0.05 57 1011.0
20260506113804 4 297 8.0 19.3 0.00 0.05 0.05 58 1010.9
20260506113304 3 242 9.7 19.3 0.00 0.05 0.05 55 1010.9
20260506112804 4 256 14.5 22.5 0.00 0.05 0.05 55 1010.9
20260506112305 4 257 8.0 19.3 0.00 0.05 0.05 55 1010.9
20260506111804 4 265 9.7 22.5 0.00 0.05 0.05 55 1010.9
20260506110803 4 217 6.4 14.5 0.00 0.05 0.05 53 1010.7
20260506105803 5 205 6.4 16.1 0.00 0.05 0.05 54 1010.7
20260506105305 5 257 12.9 19.3 0.00 0.05 0.05 56 1010.8
20260506104804 3 267 12.9 22.5 0.00 0.05 0.05 55 1010.8
20260506103804 3 240 4.8 11.3 0.00 0.05 0.05 61 1010.7
20260506102803 3 228 3.2 4.8 0.00 0.05 0.05 60 1010.8
20260506101804 3 198 4.8 11.3 0.00 0.05 0.05 59 1010.9
20260506100803 2 240 3.2 9.7 0.00 0.05 0.05 63 1010.9
20260506100303 2 249 4.8 9.7 0.00 0.05 0.05 64 1010.9
20260506095305 2 258 4.8 8.0 0.00 0.05 0.05 66 1011.1
20260506094804 2 254 3.2 4.8 0.00 0.05 0.05 65 1011.1
20260506094304 2 248 4.8 11.3 0.00 0.05 0.05 65 1011.1
20260506093804 2 247 8.0 14.5 0.00 0.05 0.05 65 1011.1
20260506092804 2 237 4.8 11.3 0.00 0.05 0.05 67 1011.0
20260506091303 2 263 3.2 8.0 0.00 0.05 0.05 66 1011.1
20260506090304 2 235 4.8 16.1 0.00 0.05 0.05 66 1011.0
20260506085804 2 238 1.6 4.8 0.00 0.05 0.05 67 1011.0
20260506085305 2 207 3.2 9.7 0.00 0.05 0.05 68 1011.0
20260506084804 2 245 6.4 12.9 0.03 0.05 0.05 68 1010.9
20260506084304 2 255 1.6 11.3 0.03 0.08 0.05 70 1010.9
20260506083804 2 174 3.2 11.3 0.03 0.08 0.05 68 1010.9
20260506083304 2 237 3.2 11.3 0.03 0.08 0.05 68 1011.0
20260506082305 2 60 1.6 3.2 0.03 0.08 0.05 74 1011.0
20260506081804 2 188 1.6 4.8 0.03 0.08 0.05 74 1011.0
20260506081304 2 64 3.2 8.0 0.03 0.08 0.05 72 1011.0
20260506080804 2 44 1.6 4.8 0.03 0.10 0.05 71 1011.0
20260506080304 2 46 1.6 4.8 0.03 0.10 0.05 71 1010.9
20260506073304 1 168 0.0 1.6 0.00 0.10 0.03 80 1010.9
20260506072804 1 57 1.6 4.8 0.00 0.10 0.03 79 1010.8
20260506072305 1 248 0.0 3.2 0.00 0.10 0.03 80 1010.8
20260506071804 1 215 0.0 3.2 0.03 0.10 0.03 80 1010.9
20260506071304 1 178 1.6 3.2 0.03 0.10 0.03 78 1010.8
20260506070804 1 39 0.0 1.6 0.03 0.10 0.03 78 1010.7
20260506070304 1 39 1.6 3.2 0.03 0.10 0.03 80 1010.6
20260506062305 0 20 0.0 0.0 0.03 0.13 0.03 84 1010.7
20260506061304 0 21 0.0 1.6 0.00 0.10 0.00 84 1010.7
20260506060804 0 21 0.0 1.6 0.00 0.10 0.00 84 1010.6
20260506060304 0 20 0.0 1.6 0.00 0.10 0.00 83 1010.7
20260506051304 0 255 0.0 1.6 0.00 0.10 0.00 76 1010.5
20260506050803 0 255 0.0 1.6 0.00 0.10 0.00 76 1010.5
20260506050303 0 258 0.0 1.6 0.00 0.10 0.00 75 1010.6
20260506044303 0 261 0.0 1.6 0.00 0.10 0.00 76 1010.4
20260506043804 0 261 0.0 1.6 0.00 0.10 0.00 76 1010.4
20260506043304 0 261 0.0 1.6 0.00 0.10 0.00 77 1010.3
20260506042305 0 261 0.0 0.0 0.00 0.10 0.00 77 1010.5
20260506041803 0 261 0.0 0.0 0.00 0.10 0.00 77 1010.5
20260506041304 0 261 0.0 0.0 0.00 0.10 0.00 76 1010.4
20260506040804 0 261 0.0 0.0 0.00 0.10 0.00 76 1010.5
20260506040304 0 261 0.0 0.0 0.00 0.10 0.00 75 1010.5
20260506035804 0 281 0.0 1.6 0.00 0.10 0.00 75 1010.5
20260506035306 0 281 0.0 1.6 0.00 0.10 0.00 75 1010.5
20260506034304 0 281 0.0 0.0 0.00 0.10 0.00 76 1010.4
20260506033803 0 281 0.0 0.0 0.00 0.10 0.00 77 1010.4
20260506033303 0 281 0.0 1.6 0.00 0.10 0.00 77 1010.4
20260506032804 0 281 0.0 1.6 0.00 0.10 0.00 77 1010.4
20260506032305 0 281 0.0 0.0 0.00 0.10 0.00 76 1010.4
20260506031303 0 281 0.0 1.6 0.00 0.10 0.00 76 1010.4
20260506030303 0 281 0.0 1.6 0.00 0.10 0.00 76 1010.5
20260506025803 0 281 0.0 1.6 0.00 0.10 0.00 76 1010.5
20260506024804 0 281 0.0 1.6 0.00 0.10 0.00 77 1010.5
20260506024304 0 281 0.0 0.0 0.00 0.10 0.00 77 1010.5
20260506023303 0 281 0.0 1.6 0.00 0.10 0.00 75 1010.6
20260506022804 0 281 0.0 0.0 0.00 0.10 0.00 77 1010.6
20260506021803 0 281 0.0 1.6 0.00 0.10 0.00 77 1010.6
20260506020804 0 281 0.0 1.6 0.00 0.10 0.00 74 1010.7
20260506014303 0 282 0.0 0.0 0.00 0.10 0.00 78 1010.8
20260506013803 0 282 0.0 0.0 0.00 0.10 0.00 77 1010.7
20260506013303 0 282 0.0 0.0 0.00 0.10 0.00 78 1010.8
20260506012803 0 282 0.0 1.6 0.00 0.10 0.00 78 1010.7
20260506011803 0 282 0.0 1.6 0.00 0.10 0.00 78 1010.8
20260506011304 0 282 0.0 1.6 0.00 0.10 0.00 77 1010.7
20260506010804 0 282 0.0 1.6 0.00 0.10 0.00 76 1010.6
20260506005804 0 282 0.0 1.6 0.00 0.10 0.00 78 1010.6
20260506005306 0 282 0.0 1.6 0.00 0.10 0.00 79 1010.6
20260506004803 0 282 0.0 0.0 0.00 0.10 0.00 78 1010.6
20260506004304 0 282 0.0 0.0 0.00 0.10 0.00 78 1010.6
20260506003804 0 282 1.6 1.6 0.00 0.10 0.00 77 1010.6
20260506003304 0 300 0.0 1.6 0.00 0.10 0.00 78 1010.6
20260506002804 0 8 0.0 1.6 0.00 0.10 0.00 77 1010.6
20260506002305 0 306 0.0 3.2 0.00 0.10 0.00 79 1010.7
20260506001803 0 306 0.0 1.6 0.00 0.10 0.00 79 1010.7
20260506001304 0 278 0.0 1.6 0.00 0.10 0.00 81 1010.7
20260506000803 0 278 0.0 0.0 0.00 0.10 0.00 81 1010.8
20260506000303 0 278 0.0 0.0 0.00 0.10 0.00 81 1010.8
20260505235804 0 278 0.0 1.6 0.00 0.10 0.00 81 1010.9
20260505235305 -1 278 0.0 1.6 0.00 0.10 0.00 80 1010.9
20260505234804 -1 278 0.0 1.6 0.00 0.10 0.00 81 1010.9
20260505234303 -1 278 0.0 1.6 0.00 0.10 0.00 82 1010.9
20260505233804 -1 278 0.0 1.6 0.00 0.10 0.00 82 1010.9
20260505232803 -1 278 0.0 1.6 0.00 0.10 0.00 83 1010.8
20260505231804 -1 271 0.0 0.0 0.00 0.10 0.00 84 1010.7
20260505231304 -1 271 0.0 1.6 0.00 0.10 0.00 84 1010.9
20260505230804 -1 271 1.6 3.2 0.00 0.10 0.00 85 1011.0
20260505230304 -1 271 1.6 3.2 0.00 0.10 0.00 84 1010.9
20260505225804 -1 266 0.0 1.6 0.00 0.10 0.00 83 1010.9
20260505225305 -1 266 0.0 1.6 0.00 0.10 0.00 83 1010.9
20260505224804 -1 266 1.6 3.2 0.00 0.10 0.00 83 1010.9
20260505224303 0 271 0.0 0.0 0.00 0.10 0.00 82 1010.7
20260505223803 0 271 1.6 3.2 0.00 0.10 0.00 82 1010.7
20260505223303 0 271 0.0 1.6 0.00 0.10 0.00 81 1010.7
20260505222306 0 271 0.0 1.6 0.00 0.10 0.00 82 1010.7
20260505221803 0 271 0.0 1.6 0.00 0.10 0.00 82 1010.7
20260505221304 0 271 0.0 1.6 0.00 0.10 0.00 82 1010.7
20260505220803 0 271 0.0 1.6 0.00 0.10 0.00 83 1010.6
20260505220304 0 271 0.0 1.6 0.00 0.10 0.00 83 1010.6
20260505215804 0 271 0.0 1.6 0.00 0.10 0.10 83 1010.7
20260505215305 0 271 0.0 1.6 0.00 0.10 0.10 82 1010.7
20260505214804 0 271 0.0 1.6 0.00 0.10 0.10 82 1010.6
20260505214304 0 271 0.0 1.6 0.00 0.10 0.10 82 1010.6
20260505213804 0 271 0.0 0.0 0.00 0.10 0.10 81 1010.7
20260505213304 0 271 0.0 1.6 0.00 0.10 0.10 81 1010.6
20260505212804 0 271 0.0 0.0 0.00 0.10 0.10 81 1010.5
20260505212305 0 271 0.0 0.0 0.00 0.10 0.10 81 1010.6
20260505211803 0 271 0.0 0.0 0.00 0.10 0.10 80 1010.6
20260505210804 0 271 0.0 0.0 0.00 0.10 0.10 81 1010.6
20260505205804 0 271 0.0 1.6 0.00 0.10 0.10 80 1010.6
20260505205305 0 271 0.0 0.0 0.00 0.10 0.10 80 1010.6
20260505204804 0 271 0.0 0.0 0.00 0.10 0.10 79 1010.6
20260505204303 0 271 0.0 1.6 0.00 0.10 0.10 79 1010.6
20260505203804 0 271 0.0 0.0 0.00 0.10 0.10 79 1010.5
20260505203304 0 271 0.0 0.0 0.00 0.10 0.10 79 1010.5
20260505202306 0 271 0.0 1.6 0.00 0.10 0.10 78 1010.4
20260505201803 0 271 0.0 1.6 0.00 0.10 0.10 78 1010.6